Brisbane, Australia

2:36 PM AEST on March 28, 2017 (GMT +1000)
Brisbane International

Weather History for YBBN - March, 2013

Change the Weather History Date:

Wednesday, March 6, 2013

  Actual Average Record
Temperature  
Mean Temperature 73 °F -  
Max Temperature 78 °F 82 °F 87 °F (1998)
Min Temperature 68 °F 66 °F 61 °F (2014)
Cooling Degree Days 8    
Growing Degree Days 23 (Base 50)    
Moisture  
Dew Point 66 °F    
Average Humidity 79    
Maximum Humidity 95    
Minimum Humidity 52    
Precipitation  
Precipitation 0.20 in 0.17 in - ()
Sea Level Pressure  
Sea Level Pressure 29.99 in    
Wind  
Wind Speed 10 mph ()    
Max Wind Speed 17 mph    
Max Gust Speed 24 mph    
Visibility 6.4 miles    
Events Rain    
Averages and records for this station are not official NWS values.
T = Trace of Precipitation, MM = Missing Value Source: Averaged Metar Reports

Daily Weather History Graph

Daily Weather History Graph

Search for Another Location

Airport or City:

Trip Planner

Search our weather history database for the weather conditions in past years. The results will help you decide how hot, cold, wet, or windy it might be!

Date:

Astronomy

Mar. 06, 2013 Rise Set
Actual Time 5:43 AM AEST 6:14 PM AEST
Civil Twilight 5:19 AM AEST 6:37 PM AEST
Nautical Twilight 4:52 AM AEST 7:05 PM AEST
Astronomical Twilight 4:24 AM AEST 7:33 PM AEST
Moon No Moon Rise 1:42 PM AEST (3/6)
Length of Visible Light 13h 17m
Length of Day
12h 30m
Last Quarter, 37% of the Moon is Illuminated
Mar 6
Last Quarter
Mar 12
New
Mar 20
First Quarter
Mar 27
Full
Apr 3
Last Quarter

Hourly Weather History & Observations

Time (AEST) Temp. Dew Point Humidity Pressure Visibility Wind Dir Wind Speed Gust Speed Precip Events Conditions
12:00 AM 74 °F 63 °F 59% 29.99 in 16 mi ESE 9.2 mph - -   Partly Cloudy
12:00 AM 75.2 °F 62.6 °F 65% 29.98 in 6.2 mi ESE 9.2 mph - N/A   Mostly Cloudy
12:30 AM 75.2 °F 62.6 °F 65% 29.98 in 6.2 mi ESE 10.4 mph - N/A   Mostly Cloudy
1:00 AM 71 °F 67 °F 84% 29.99 in - East 16.1 mph - -  
1:00 AM 71.6 °F 68.0 °F 88% 29.98 in 5.0 mi East 16.1 mph - N/A Rain Light Rain Showers
1:30 AM 69.8 °F 64.4 °F 83% 29.98 in 6.2 mi SE 11.5 mph - N/A   Mostly Cloudy
2:00 AM 71.6 °F 64.4 °F 78% 29.95 in 6.2 mi SE 8.1 mph - N/A Rain Light Rain Showers
2:30 AM 71.6 °F 66.2 °F 83% 29.95 in 6.2 mi ESE 9.2 mph - N/A   Mostly Cloudy
3:00 AM 73 °F 64 °F 66% 29.96 in 16 mi ESE 10.4 mph - - Rain Light Rain Showers
3:00 AM 73.4 °F 64.4 °F 73% 29.95 in 6.2 mi ESE 10.4 mph - N/A   Mostly Cloudy
3:30 AM 71.6 °F 66.2 °F 83% 29.95 in 6.2 mi ESE 16.1 mph - N/A   Mostly Cloudy
4:00 AM 69 °F 64 °F 77% 29.97 in - SSE 11.5 mph - -  
4:00 AM 69.8 °F 64.4 °F 83% 29.95 in 6.2 mi SSE 11.5 mph - N/A   Mostly Cloudy
4:30 AM 69.8 °F 64.4 °F 83% 29.98 in 6.2 mi SSE 8.1 mph - N/A   Mostly Cloudy
5:00 AM 69.8 °F 64.4 °F 83% 29.98 in 6.2 mi SSE 8.1 mph - N/A   Mostly Cloudy
5:30 AM 69.8 °F 64.4 °F 83% 29.98 in 5.6 mi ESE 13.8 mph - N/A Rain Light Rain Showers
6:00 AM 72 °F 64 °F 71% 29.99 in 12 mi East 8.1 mph - -   Mostly Cloudy
6:00 AM 71.6 °F 64.4 °F 78% 29.98 in 6.2 mi East 8.1 mph - N/A   Mostly Cloudy
6:21 AM 69.8 °F 64.4 °F 83% 29.98 in 2.5 mi SSE 9.2 mph - N/A Rain Light Rain Showers
6:27 AM 69.8 °F 66.2 °F 88% 29.98 in 3.7 mi SE 8.1 mph - N/A Rain Light Rain Showers
6:30 AM 69.8 °F 66.2 °F 88% 29.98 in 5.6 mi ESE 9.2 mph - N/A Rain Light Rain Showers
7:00 AM 72 °F 65 °F 72% 30.00 in - East 8.1 mph - -  
7:00 AM 71.6 °F 64.4 °F 78% 29.98 in 6.2 mi East 8.1 mph - N/A   Mostly Cloudy
7:30 AM 73.4 °F 64.4 °F 73% 29.98 in 6.2 mi ESE 9.2 mph - N/A   Mostly Cloudy
8:00 AM 73.4 °F 66.2 °F 78% 30.01 in 6.2 mi ESE 8.1 mph - N/A   Mostly Cloudy
8:30 AM 75.2 °F 62.6 °F 65% 30.01 in 6.2 mi ESE 12.7 mph - N/A   Mostly Cloudy
9:00 AM 76 °F 62 °F 54% 30.03 in 16 mi ESE 11.5 mph - -   Mostly Cloudy
9:00 AM 77.0 °F 62.6 °F 61% 30.01 in 6.2 mi ESE 11.5 mph - N/A   Mostly Cloudy
9:30 AM 75.2 °F 64.4 °F 69% 30.04 in 6.2 mi SE 10.4 mph - N/A   Mostly Cloudy
10:00 AM 76 °F 64 °F 59% 30.04 in - SE 10.4 mph - -  
10:00 AM 77.0 °F 64.4 °F 65% 30.04 in 6.2 mi SE 10.4 mph - N/A   Mostly Cloudy
10:30 AM 77.0 °F 64.4 °F 65% 30.01 in 6.2 mi SE 8.1 mph - N/A   Scattered Clouds
11:00 AM 78.8 °F 62.6 °F 57% 30.01 in 6.2 mi ESE 12.7 mph 24.2 mph N/A   Scattered Clouds
11:30 AM 77.0 °F 66.2 °F 69% 30.01 in 6.2 mi East 17.3 mph - N/A Rain Light Rain Showers
12:00 PM 76 °F 66 °F 63% 30.01 in 16 mi East 11.5 mph - -   Mostly Cloudy
12:00 PM 75.2 °F 66.2 °F 73% 30.01 in 6.2 mi East 11.5 mph - N/A   Mostly Cloudy
12:30 PM 78.8 °F 66.2 °F 65% 29.98 in 6.2 mi ESE 12.7 mph - N/A   Scattered Clouds
1:00 PM 78 °F 64 °F 52% 30.00 in - SE 15.0 mph - -  
1:00 PM 78.8 °F 64.4 °F 61% 29.98 in 6.2 mi SE 15.0 mph - N/A   Scattered Clouds
1:30 PM 77.0 °F 66.2 °F 69% 29.98 in 6.2 mi East 12.7 mph - N/A   Mostly Cloudy
1:53 PM 77.0 °F 68.0 °F 74% 29.98 in 6.2 mi East 9.2 mph - N/A Rain Rain Showers
2:00 PM 77.0 °F 68.0 °F 74% 29.98 in 6.2 mi East 10.4 mph - N/A Rain Rain Showers
2:19 PM 77.0 °F 64.4 °F 65% 29.98 in 6.2 mi East 12.7 mph - N/A   Mostly Cloudy
2:30 PM 75.2 °F 64.4 °F 69% 29.98 in 5.0 mi East 12.7 mph - N/A Rain Light Rain Showers
3:00 PM 78 °F 65 °F 56% 29.98 in 11 mi ESE 12.7 mph - - Rain Light Rain Showers
3:00 PM 77.0 °F 66.2 °F 69% 29.98 in 5.6 mi ESE 12.7 mph - N/A Rain Light Rain Showers
3:30 PM 75.2 °F 66.2 °F 73% 29.98 in 3.7 mi SE 11.5 mph - N/A Rain Light Rain Showers
4:00 PM 72 °F 67 °F 81% 29.98 in - SSE 9.2 mph - -  
4:00 PM 73.4 °F 68.0 °F 83% 29.98 in 3.7 mi SSE 9.2 mph - N/A Rain Light Rain Showers
4:30 PM 73.4 °F 68.0 °F 83% 29.98 in 6.2 mi SSE 10.4 mph - N/A   Mostly Cloudy
5:00 PM 71.6 °F 68.0 °F 88% 29.98 in 3.1 mi SSE 11.5 mph - N/A Rain Light Rain Showers
5:30 PM 71.6 °F 68.0 °F 88% 29.98 in 3.1 mi SSE 9.2 mph - N/A Rain Rain Showers
5:38 PM 71.6 °F 68.0 °F 88% 29.98 in 1.9 mi SSE 9.2 mph - N/A Rain Rain Showers
5:51 PM 69.8 °F 68.0 °F 94% 29.98 in 3.7 mi SSE 10.4 mph - N/A Rain Light Rain Showers
6:00 PM 70 °F 68 °F 93% 30.00 in 6 mi South 9.2 mph - - Rain Light Rain Showers
6:00 PM 69.8 °F 68.0 °F 94% 29.98 in 5.0 mi South 9.2 mph - N/A Rain Light Rain Showers
6:30 PM 69.8 °F 68.0 °F 94% 29.98 in 6.2 mi South 9.2 mph - N/A   Partly Cloudy
7:00 PM 69 °F 67 °F 93% 30.01 in - South 9.2 mph - -  
7:00 PM 69.8 °F 68.0 °F 94% 30.01 in 5.6 mi South 9.2 mph - N/A   Mostly Cloudy
7:30 PM 69.8 °F 68.0 °F 94% 30.01 in 5.0 mi South 10.4 mph - N/A   Mostly Cloudy
8:00 PM 69.8 °F 68.0 °F 94% 30.01 in 6.2 mi South 8.1 mph - N/A   Mostly Cloudy
8:30 PM 69.8 °F 66.2 °F 88% 30.01 in 5.0 mi SSE 8.1 mph - N/A Rain Light Rain Showers
9:00 PM 69 °F 68 °F 95% 30.03 in 9 mi SSE 6.9 mph - - Rain Light Rain Showers
9:00 PM 69.8 °F 68.0 °F 94% 30.01 in 5.0 mi SSE 6.9 mph - N/A Rain Light Rain Showers
9:30 PM 69.8 °F 68.0 °F 94% 30.04 in 6.2 mi South 6.9 mph - N/A   Mostly Cloudy
10:00 PM 70 °F 67 °F 88% 30.03 in - SSE 5.8 mph - -  
10:00 PM 69.8 °F 68.0 °F 94% 30.01 in 6.2 mi SSE 5.8 mph - N/A   Mostly Cloudy
10:15 PM 69.8 °F 68.0 °F 94% 30.01 in 1.9 mi SSE 4.6 mph - N/A Rain Rain Showers
10:23 PM 69.8 °F 68.0 °F 94% 30.01 in - SSE 5.8 mph - N/A Rain Heavy Rain
10:30 PM 69.8 °F 68.0 °F 94% 30.01 in 5.6 mi SSE 5.8 mph - N/A   Mostly Cloudy
11:09 PM 69.8 °F 68.0 °F 94% 30.01 in 5.0 mi SSE 3.5 mph - N/A Rain Light Rain Showers
11:30 PM 69.8 °F 68.0 °F 94% 30.01 in 6.2 mi East 6.9 mph - N/A   Mostly Cloudy